| time (UTC) | temp C | wind direction | speed KPH | gust KPH | rain 1hr cm | rain 24hr cm | rain mn cm | humidity % | barometer mb |
| 20260504202007 | 17 | 360 | 20.9 | 37.0 | 0.00 | 0.00 | 0.00 | 31 | 1003.4 |
| 20260504201529 | 17 | 321 | 24.1 | 37.0 | 0.00 | 0.00 | 0.00 | 30 | 1003.3 |
| 20260504201003 | 17 | 336 | 16.1 | 33.8 | 0.00 | 0.00 | 0.00 | 29 | 1003.4 |
| 20260504200507 | 17 | 360 | 14.5 | 45.1 | 0.00 | 0.00 | 0.00 | 31 | 1003.5 |
| 20260504200026 | 17 | 294 | 27.4 | 45.1 | 0.00 | 0.00 | 0.00 | 27 | 1003.4 |
| 20260504195502 | 17 | 336 | 22.5 | 48.3 | 0.00 | 0.00 | 0.00 | 27 | 1003.3 |
| 20260504195006 | 17 | 360 | 25.7 | 48.3 | 0.00 | 0.00 | 0.00 | 28 | 1003.3 |
| 20260504194504 | 18 | 341 | 27.4 | 48.3 | 0.00 | 0.00 | 0.00 | 29 | 1003.1 |
| 20260504194002 | 17 | 343 | 29.0 | 46.7 | 0.00 | 0.00 | 0.00 | 30 | 1003.0 |
| 20260504193506 | 17 | 360 | 25.7 | 46.7 | 0.00 | 0.00 | 0.00 | 30 | 1003.0 |
| 20260504193008 | 17 | 309 | 22.5 | 46.7 | 0.00 | 0.00 | 0.00 | 31 | 1003.0 |
| 20260504192506 | 18 | 310 | 24.1 | 38.6 | 0.00 | 0.00 | 0.00 | 32 | 1002.8 |
| 20260504192009 | 18 | 360 | 20.9 | 48.3 | 0.00 | 0.00 | 0.00 | 32 | 1002.7 |
| 20260504191504 | 18 | 360 | 25.7 | 48.3 | 0.00 | 0.00 | 0.00 | 31 | 1002.7 |
| 20260504191008 | 18 | 360 | 32.2 | 46.7 | 0.00 | 0.00 | 0.00 | 31 | 1002.6 |
| 20260504190507 | 18 | 360 | 33.8 | 46.7 | 0.00 | 0.00 | 0.00 | 30 | 1002.6 |
| 20260504190007 | 18 | 360 | 24.1 | 40.2 | 0.00 | 0.00 | 0.00 | 31 | 1002.6 |
| 20260504185508 | 18 | 336 | 25.7 | 37.0 | 0.00 | 0.00 | 0.00 | 32 | 1002.6 |
| 20260504185011 | 18 | 296 | 20.9 | 33.8 | 0.00 | 0.00 | 0.00 | 30 | 1002.7 |
| 20260504184514 | 18 | 305 | 24.1 | 37.0 | 0.00 | 0.00 | 0.00 | 29 | 1002.7 |
| 20260504184006 | 19 | 306 | 17.7 | 51.5 | 0.00 | 0.00 | 0.00 | 29 | 1002.6 |
| 20260504183508 | 19 | 329 | 25.7 | 51.5 | 0.00 | 0.00 | 0.00 | 29 | 1002.6 |
| 20260504183019 | 18 | 339 | 20.9 | 37.0 | 0.00 | 0.00 | 0.00 | 30 | 1002.5 |
| 20260504182509 | 18 | 11 | 17.7 | 38.6 | 0.00 | 0.00 | 0.00 | 30 | 1002.5 |
| 20260504182011 | 18 | 312 | 20.9 | 45.1 | 0.00 | 0.00 | 0.00 | 30 | 1002.6 |
| 20260504181512 | 18 | 349 | 29.0 | 45.1 | 0.00 | 0.00 | 0.00 | 31 | 1002.5 |
| 20260504181007 | 18 | 302 | 17.7 | 41.8 | 0.00 | 0.00 | 0.00 | 30 | 1002.4 |
| 20260504180511 | 18 | 360 | 17.7 | 43.5 | 0.00 | 0.00 | 0.00 | 30 | 1002.4 |
| 20260504180014 | 19 | 360 | 27.4 | 43.5 | 0.00 | 0.00 | 0.00 | 30 | 1002.2 |
| 20260504175506 | 18 | 302 | 24.1 | 41.8 | 0.00 | 0.00 | 0.00 | 28 | 1002.1 |
| 20260504175014 | 19 | 360 | 17.7 | 37.0 | 0.00 | 0.00 | 0.00 | 31 | 1001.9 |
| 20260504174512 | 18 | 360 | 20.9 | 35.4 | 0.00 | 0.00 | 0.00 | 30 | 1001.9 |
| 20260504174007 | 18 | 312 | 19.3 | 38.6 | 0.00 | 0.00 | 0.00 | 29 | 1001.8 |
| 20260504173025 | 19 | 340 | 24.1 | 43.5 | 0.00 | 0.00 | 0.00 | 29 | 1001.8 |
| 20260504172507 | 18 | 360 | 20.9 | 37.0 | 0.00 | 0.00 | 0.00 | 30 | 1001.6 |
| 20260504172011 | 18 | 360 | 19.3 | 40.2 | 0.00 | 0.00 | 0.00 | 31 | 1001.7 |
| 20260504171523 | 18 | 360 | 20.9 | 40.2 | 0.00 | 0.00 | 0.00 | 32 | 1001.8 |
| 20260504171009 | 18 | 360 | 30.6 | 41.8 | 0.00 | 0.00 | 0.00 | 30 | 1001.6 |
| 20260504170505 | 18 | 11 | 32.2 | 41.8 | 0.00 | 0.00 | 0.00 | 31 | 1001.7 |
| 20260504151013 | 17 | 360 | 32.2 | 41.8 | 0.00 | 0.00 | 0.00 | 44 | 1000.1 |
| 20260504150507 | 17 | 13 | 33.8 | 41.8 | 0.00 | 0.00 | 0.00 | 44 | 1000.1 |
| 20260504141006 | 16 | 309 | 20.9 | 37.0 | 0.00 | 0.00 | 0.00 | 50 | 999.9 |
| 20260504140506 | 16 | 288 | 17.7 | 37.0 | 0.00 | 0.00 | 0.00 | 50 | 999.8 |
| 20260504130503 | 14 | 253 | 25.7 | 35.4 | 0.00 | 0.00 | 0.00 | 49 | 999.1 |
| 20260504110503 | 11 | 215 | 12.9 | 20.9 | 0.00 | 0.00 | 0.00 | 56 | 999.2 |
| 20260504100505 | 11 | 217 | 14.5 | 24.1 | 0.00 | 0.00 | 0.00 | 56 | 999.8 |
| 20260504081512 | 10 | 215 | 16.1 | 22.5 | 0.00 | 0.00 | 0.00 | 58 | 1000.8 |
| 20260504081007 | 10 | 228 | 11.3 | 19.3 | 0.00 | 0.00 | 0.00 | 59 | 1000.9 |
| 20260504080510 | 10 | 229 | 12.9 | 17.7 | 0.00 | 0.00 | 0.00 | 58 | 1000.9 |
| 20260504050507 | 11 | 215 | 8.0 | 14.5 | 0.00 | 0.00 | 0.00 | 50 | 1003.6 |
| 20260504050004 | 11 | 360 | 9.7 | 12.9 | 0.00 | 0.00 | 0.00 | 50 | 1003.7 |
| 20260504045504 | 11 | 222 | 8.0 | 12.9 | 0.00 | 0.00 | 0.00 | 50 | 1003.7 |
| 20260504045012 | 11 | 216 | 6.4 | 12.9 | 0.00 | 0.00 | 0.00 | 50 | 1003.8 |
| 20260504044510 | 11 | 206 | 8.0 | 11.3 | 0.00 | 0.00 | 0.00 | 50 | 1003.8 |
| 20260504044006 | 12 | 204 | 6.4 | 11.3 | 0.00 | 0.00 | 0.00 | 49 | 1003.8 |
| 20260504043508 | 11 | 231 | 6.4 | 11.3 | 0.00 | 0.00 | 0.00 | 49 | 1003.9 |
| 20260504043009 | 12 | 204 | 4.8 | 12.9 | 0.00 | 0.00 | 0.00 | 50 | 1003.9 |
| 20260504042507 | 11 | 214 | 8.0 | 12.9 | 0.00 | 0.00 | 0.00 | 50 | 1004.0 |
| 20260504042009 | 12 | 205 | 6.4 | 11.3 | 0.00 | 0.00 | 0.00 | 50 | 1004.2 |
| 20260504041510 | 12 | 211 | 6.4 | 11.3 | 0.00 | 0.00 | 0.00 | 49 | 1004.3 |
| 20260504041006 | 11 | 200 | 6.4 | 9.7 | 0.00 | 0.00 | 0.00 | 50 | 1004.4 |
| 20260504040510 | 11 | 217 | 4.8 | 8.0 | 0.00 | 0.00 | 0.00 | 49 | 1004.5 |
| 20260504040010 | 12 | 223 | 4.8 | 8.0 | 0.00 | 0.00 | 0.00 | 49 | 1004.5 |
| 20260504035511 | 12 | 206 | 4.8 | 8.0 | 0.00 | 0.00 | 0.00 | 49 | 1004.6 |
| 20260504035008 | 12 | 186 | 3.2 | 6.4 | 0.00 | 0.00 | 0.00 | 47 | 1004.7 |
| 20260504034512 | 12 | 204 | 3.2 | 6.4 | 0.00 | 0.00 | 0.00 | 47 | 1004.8 |
| 20260504034006 | 12 | 213 | 3.2 | 6.4 | 0.00 | 0.00 | 0.00 | 47 | 1004.9 |
| 20260504033510 | 12 | 202 | 3.2 | 8.0 | 0.00 | 0.00 | 0.00 | 47 | 1005.0 |
| 20260504033013 | 12 | 202 | 4.8 | 8.0 | 0.00 | 0.00 | 0.00 | 47 | 1005.1 |
| 20260504032508 | 12 | 360 | 4.8 | 8.0 | 0.00 | 0.00 | 0.00 | 46 | 1005.2 |
| 20260504032012 | 12 | 220 | 0.0 | 6.4 | 0.00 | 0.00 | 0.00 | 46 | 1005.2 |
| 20260504031516 | 12 | 230 | 0.0 | 3.2 | 0.00 | 0.00 | 0.00 | 46 | 1005.3 |
| 20260504031008 | 12 | 237 | 1.6 | 4.8 | 0.00 | 0.00 | 0.00 | 46 | 1005.4 |
| 20260504030506 | 13 | 244 | 1.6 | 6.4 | 0.00 | 0.00 | 0.00 | 45 | 1005.4 |
| 20260504030013 | 13 | 219 | 3.2 | 6.4 | 0.00 | 0.00 | 0.00 | 45 | 1005.5 |
| 20260504025507 | 13 | 239 | 1.6 | 8.0 | 0.00 | 0.00 | 0.00 | 45 | 1005.5 |
| 20260504025003 | 13 | 248 | 4.8 | 9.7 | 0.00 | 0.00 | 0.00 | 43 | 1005.6 |
| 20260504024520 | 14 | 232 | 6.4 | 11.3 | 0.00 | 0.00 | 0.00 | 43 | 1005.5 |
| 20260504024012 | 13 | 241 | 4.8 | 11.3 | 0.00 | 0.00 | 0.00 | 44 | 1005.4 |
| 20260504023503 | 14 | 219 | 6.4 | 8.0 | 0.00 | 0.00 | 0.00 | 42 | 1005.5 |
| 20260504023020 | 14 | 217 | 6.4 | 9.7 | 0.00 | 0.00 | 0.00 | 41 | 1005.5 |
| 20260504022511 | 15 | 247 | 3.2 | 12.9 | 0.00 | 0.00 | 0.00 | 41 | 1005.5 |
| 20260504022004 | 15 | 215 | 8.0 | 14.5 | 0.00 | 0.00 | 0.00 | 41 | 1005.4 |
| 20260504021525 | 15 | 218 | 8.0 | 14.5 | 0.00 | 0.00 | 0.00 | 40 | 1005.5 |
| 20260504021009 | 15 | 254 | 8.0 | 12.9 | 0.00 | 0.00 | 0.00 | 39 | 1005.6 |
| 20260504020502 | 15 | 238 | 6.4 | 11.3 | 0.00 | 0.00 | 0.00 | 40 | 1005.6 |
| 20260504020021 | 15 | 269 | 3.2 | 12.9 | 0.00 | 0.00 | 0.00 | 38 | 1005.6 |
| 20260504015508 | 16 | 243 | 6.4 | 12.9 | 0.00 | 0.00 | 0.00 | 37 | 1005.6 |
| 20260504015003 | 16 | 259 | 8.0 | 12.9 | 0.00 | 0.00 | 0.00 | 36 | 1005.6 |
| 20260504014521 | 16 | 245 | 6.4 | 14.5 | 0.00 | 0.00 | 0.00 | 36 | 1005.7 |
| 20260504014006 | 16 | 230 | 6.4 | 14.5 | 0.00 | 0.00 | 0.00 | 36 | 1005.7 |
| 20260504013503 | 16 | 241 | 6.4 | 11.3 | 0.00 | 0.00 | 0.00 | 36 | 1005.7 |
| 20260504013029 | 16 | 261 | 6.4 | 12.9 | 0.00 | 0.00 | 0.00 | 36 | 1005.7 |
| 20260504012507 | 16 | 261 | 6.4 | 12.9 | 0.00 | 0.00 | 0.00 | 36 | 1005.8 |
| 20260504012007 | 17 | 268 | 9.7 | 14.5 | 0.00 | 0.00 | 0.00 | 36 | 1005.8 |
| 20260504011522 | 17 | 269 | 11.3 | 14.5 | 0.00 | 0.00 | 0.00 | 35 | 1005.9 |
| 20260504011011 | 17 | 259 | 12.9 | 16.1 | 0.00 | 0.00 | 0.00 | 34 | 1005.9 |
| 20260504010505 | 18 | 260 | 11.3 | 20.9 | 0.00 | 0.00 | 0.00 | 33 | 1005.9 |
| 20260504010023 | 18 | 275 | 14.5 | 20.9 | 0.00 | 0.00 | 0.00 | 32 | 1005.9 |
| 20260504005509 | 18 | 360 | 9.7 | 16.1 | 0.00 | 0.00 | 0.00 | 31 | 1005.9 |
| 20260504005005 | 19 | 257 | 11.3 | 20.9 | 0.00 | 0.00 | 0.00 | 31 | 1006.0 |
| 20260504004522 | 19 | 360 | 14.5 | 24.1 | 0.00 | 0.00 | 0.00 | 29 | 1006.0 |
| 20260504004010 | 20 | 253 | 16.1 | 25.7 | 0.00 | 0.00 | 0.00 | 29 | 1005.9 |
| 20260504003507 | 20 | 284 | 19.3 | 25.7 | 0.00 | 0.00 | 0.00 | 28 | 1005.9 |
| 20260504003025 | 20 | 280 | 16.1 | 25.7 | 0.00 | 0.00 | 0.00 | 28 | 1006.0 |
| 20260504002509 | 20 | 260 | 17.7 | 25.7 | 0.00 | 0.00 | 0.00 | 28 | 1006.0 |
| 20260504002006 | 20 | 265 | 16.1 | 24.1 | 0.00 | 0.00 | 0.00 | 28 | 1006.1 |
| 20260504001524 | 20 | 360 | 8.0 | 22.5 | 0.00 | 0.00 | 0.00 | 26 | 1006.1 |
| 20260504001002 | 21 | 336 | 8.0 | 22.5 | 0.00 | 0.00 | 0.00 | 26 | 1006.1 |
| 20260504000506 | 21 | 360 | 9.7 | 24.1 | 0.00 | 0.00 | 0.00 | 27 | 1006.2 |
| 20260504000027 | 21 | 319 | 9.7 | 24.1 | 0.00 | 0.00 | 0.00 | 26 | 1006.2 |
| 20260503235503 | 21 | 312 | 6.4 | 29.0 | 0.00 | 0.00 | 0.00 | 26 | 1006.2 |
| 20260503235007 | 21 | 288 | 12.9 | 29.0 | 0.00 | 0.00 | 0.00 | 25 | 1006.3 |
| 20260503234528 | 21 | 269 | 20.9 | 25.7 | 0.00 | 0.00 | 0.00 | 24 | 1006.3 |
| 20260503234008 | 21 | 260 | 17.7 | 30.6 | 0.00 | 0.00 | 0.00 | 24 | 1006.3 |
| 20260503233507 | 21 | 360 | 12.9 | 30.6 | 0.00 | 0.00 | 0.00 | 25 | 1006.4 |
| 20260503233026 | 21 | 269 | 17.7 | 27.4 | 0.00 | 0.00 | 0.00 | 25 | 1006.4 |
| 20260503232503 | 21 | 329 | 16.1 | 25.7 | 0.00 | 0.00 | 0.00 | 26 | 1006.4 |
| 20260503232002 | 21 | 236 | 14.5 | 24.1 | 0.00 | 0.00 | 0.00 | 26 | 1006.5 |
| 20260503231508 | 21 | 252 | 17.7 | 29.0 | 0.00 | 0.00 | 0.00 | 28 | 1006.4 |
| 20260503231006 | 21 | 284 | 11.3 | 30.6 | 0.00 | 0.00 | 0.00 | 27 | 1006.5 |
| 20260503230503 | 21 | 360 | 19.3 | 30.6 | 0.00 | 0.00 | 0.00 | 28 | 1006.5 |
| 20260503230009 | 22 | 265 | 9.7 | 24.1 | 0.00 | 0.00 | 0.00 | 26 | 1006.6 |
| 20260503225503 | 21 | 315 | 9.7 | 24.1 | 0.00 | 0.00 | 0.00 | 27 | 1006.6 |
| 20260503225003 | 21 | 284 | 8.0 | 24.1 | 0.00 | 0.00 | 0.00 | 26 | 1006.6 |
| 20260503224510 | 21 | 360 | 12.9 | 24.1 | 0.00 | 0.00 | 0.00 | 26 | 1006.7 |
| 20260503224005 | 22 | 331 | 11.3 | 24.1 | 0.00 | 0.00 | 0.00 | 25 | 1006.7 |
| 20260503223501 | 22 | 301 | 14.5 | 24.1 | 0.00 | 0.00 | 0.00 | 25 | 1006.6 |
| 20260503223011 | 21 | 298 | 12.9 | 27.4 | 0.00 | 0.00 | 0.00 | 25 | 1006.7 |
| 20260503222508 | 22 | 360 | 11.3 | 27.4 | 0.00 | 0.00 | 0.00 | 25 | 1006.8 |
| 20260503222003 | 22 | 285 | 12.9 | 24.1 | 0.00 | 0.00 | 0.00 | 26 | 1006.8 |
| 20260503221510 | 21 | 285 | 12.9 | 32.2 | 0.00 | 0.00 | 0.00 | 24 | 1006.9 |
| 20260503221006 | 21 | 277 | 19.3 | 32.2 | 0.00 | 0.00 | 0.00 | 23 | 1006.9 |
| 20260503220503 | 22 | 311 | 9.7 | 24.1 | 0.00 | 0.00 | 0.00 | 25 | 1006.9 |
| 20260503220010 | 22 | 277 | 14.5 | 29.0 | 0.00 | 0.00 | 0.00 | 23 | 1007.0 |
| 20260503215502 | 21 | 302 | 12.9 | 33.8 | 0.00 | 0.00 | 0.00 | 23 | 1007.0 |
| 20260503215002 | 21 | 304 | 20.9 | 38.6 | 0.00 | 0.00 | 0.00 | 22 | 1007.0 |
| 20260503214514 | 22 | 360 | 22.5 | 38.6 | 0.00 | 0.00 | 0.00 | 23 | 1007.1 |
| 20260503214003 | 22 | 279 | 17.7 | 30.6 | 0.00 | 0.00 | 0.00 | 25 | 1007.0 |
| 20260503213502 | 22 | 322 | 17.7 | 25.7 | 0.00 | 0.00 | 0.00 | 24 | 1007.0 |
| 20260503213026 | 22 | 331 | 11.3 | 27.4 | 0.00 | 0.00 | 0.00 | 23 | 1007.1 |
| 20260503212504 | 22 | 331 | 11.3 | 27.4 | 0.00 | 0.00 | 0.00 | 25 | 1007.2 |
| 20260503212006 | 22 | 292 | 14.5 | 30.6 | 0.00 | 0.00 | 0.00 | 26 | 1007.2 |
| 20260503211518 | 22 | 352 | 17.7 | 30.6 | 0.00 | 0.00 | 0.00 | 25 | 1007.2 |
| 20260503211006 | 22 | 313 | 9.7 | 29.0 | 0.00 | 0.00 | 0.00 | 25 | 1007.3 |
| 20260503210503 | 22 | 311 | 14.5 | 29.0 | 0.00 | 0.00 | 0.00 | 24 | 1007.4 |
| 20260503210012 | 22 | 360 | 14.5 | 27.4 | 0.00 | 0.00 | 0.00 | 24 | 1007.4 |
| 20260503205503 | 22 | 335 | 19.3 | 27.4 | 0.00 | 0.00 | 0.00 | 24 | 1007.4 |
| 20260503205008 | 22 | 360 | 14.5 | 25.7 | 0.00 | 0.00 | 0.00 | 24 | 1007.4 |
| 20260503204518 | 22 | 317 | 16.1 | 25.7 | 0.00 | 0.00 | 0.00 | 26 | 1007.5 |
| 20260503204002 | 22 | 284 | 16.1 | 27.4 | 0.00 | 0.00 | 0.00 | 27 | 1007.5 |
| 20260503203506 | 21 | 325 | 16.1 | 27.4 | 0.00 | 0.00 | 0.00 | 27 | 1007.6 |
| 20260503203015 | 22 | 330 | 9.7 | 37.0 | 0.00 | 0.00 | 0.00 | 29 | 1007.6 |
| 20260503202503 | 22 | 343 | 19.3 | 37.0 | 0.00 | 0.00 | 0.00 | 27 | 1007.7 |